Location: Cutler
(25.6150°N, 80.3110°W)
Time: 10:21:05
(UTC-05:00)

ISS - Pass Details

Date: 16 November 2017
Orbit: 402 x 407 km, 51.6° (Epoch: 22 November)

Event Time Altitude Azimuth Distance (km) Brightness Sun altitude
Exits shadow 05:48:51 - 347° (NNW) 2,080 -0.5 -11.7°
Reaches altitude 10° 05:51:22 10° 17° (NNE) 1,448 -1.0 -11.2°
Maximum altitude 05:52:37 12° 39° (NE) 1,348 -0.9 -10.9°
Drops below altitude 10° 05:53:52 10° 62° (ENE) 1,446 -0.3 -10.7°
Sets 05:57:04 0° 97° (E) 2,303 2.1 -10.0°
